DECAYED

CZ-6A DEB, 55224 (Decayed)

Orbit data source: Space-Track

CZ-6A DEB, 55224 was space debris in SSO originally from a launch on Fri, 11 Nov 2022 UTC launched from the Taiyaun Space Center, China (TSC). Debris objects in space refer to the collection of defunct objects orbiting the Earth. Examples of debris include non-operational satellites, rocket bodies, and fragments generated from explosions, collisions, or faulty payload assembly.

Not visible in the next 10 days
Identifier
55224, 2022-151WR
Orbit
Decayed
Country
Flag of CNCN / PRC
Related business
Manufacturer
SAST
Mission
Decayed spacecraft
Bus & Motor
Unknown
Mass
Unknown
Launch date (UTC)
2022-11-11 (4 years ago)
Launch vehicle
Unknown
Launch site
Taiyaun Space Center, China (TSC)
Object type
Payload
Rocket body
Debris
Shape & HBR
Unknown shape, 0.1 m
Radar Cross Section
Medium (>0.1 m² and <1 m²)

Expand to show TLE details & history
Last TLE update: 1 year ago

TLE from 1 year ago
0 CZ-6A DEB
1 55224U 22151WR  25242.78906869  .05799080  41975-1  22345-1 0  9999
2 55224  98.6449 325.4304 0025717 300.6583  59.2151 15.90682024144300
Epoch: 2025-08-30T18:56Z
TLE epoch observation values (Epoch: 2025-08-30T18:56:15.534Z)
Latitude
-0.00008°
Longitude
62.14736°
Altitude
294.759 km
Speed
7.736 km/s
True Right ascension
21h 41m 43s
True Declination
0° 00' 00"
Sunlit
Object was in full shadow at epoch
Visualization orbit readout
Latitude
Unknown
Longitude
Unknown
Altitude
Unknown
Speed
Unknown
Apparent Right ascension
Unknown
Apparent Declination
Unknown
Sunlit
N/A
Visualization observer readout
Local Sidereal Time
16:07:01
Azimuth
Unknown
Elevation
Unknown
Doppler factor
Unknown
Orbital elements
Apogee altitude
314.472 km
Perigee altitude
280.137 km
Semi-major axis
6,675.442 km
Eccentricity
0.00257
Inclination
98.6449°
RAAN
325.4304°
Arg. of periapsis
300.6583°
True anomaly
59.46869°
Mean anomaly
59.2151°
Eccentric anomaly
59.34185°
Mean motion
3.97945 °/min
Orbital period
90.46 mins
BSTAR
0.022345
Loading maneuver chart data...
Computing Atmospheric mass density...
Loading historical data...
Loading historical data...
Loading historical data...
Loading historical data...
Loading historical data...
Loading historical data...
Loading historical data...

Documentation

Showing up to 5 results
|